Other Public Products
Issued by NWS Grand Forks, ND

Home | Current Version | Previous Version | Graphics & Text | Print | Product List | Glossary On
Versions: 1 2 3 4 5 6 7 8 9 10 11 12 13 14 15 16 17 18 19 20 21 22 23 24 25 26 27 28 29 30 31 32 33 34 35 36 37 38 39 40 41 42 43 44 45 46 47 48 49 50
000
FPUS83 KFGF 210831
OPUFGF
PRAIRIE TO PINES WEATHER ROUNDUP
NATIONAL WEATHER SERVICE EASTERN NORTH DAKOTA/GRAND FORKS ND
300 AM CDT TUE APR 21 2015

 **SATELLITE DATA USED TO AUGMENT SKY COVER AT AUTOMATED STATIONS**
 *****  WEATHER ACROSS EASTERN NORTH DAKOTA  *****

CITY           SKY/WX    TMP DP  RH WIND       PRES   REMARKS
GRAND FORKS    CLOUDY    34  27  75 NW21G28   29.63R WCI  22
GRAND FORKS AF CLOUDY    32  27  80 N22G29    29.64R WCI  19
GRAND CITY NWS   N/A     32 N/A N/A N21         N/A  WCI  20
BUXTON           N/A     33  29  83 CALM        N/A
DEVILS LAKE    CLOUDY    34  25  69 NW24G30   29.70S WCI  21
FARGO          CLOUDY    35  27  72 NW17      29.63S WCI  25
WAHPETON ARPT  CLOUDY    32  25  74 NW15      29.65S WCI  22
$$

 *****  WEATHER ACROSS CENTRAL AND WESTERN NORTH DAKOTA  *****

CITY           SKY/WX    TMP DP  RH WIND       PRES   REMARKS
JAMESTOWN      PTCLDY    30  24  78 NW15      29.71S WCI  19
BISMARCK       CLOUDY    37  23  56 NE15      29.80R
MINOT          CLOUDY    34  22  61 NW10      29.82R
MINOT AFB      CLOUDY    33  24  71 NW8       29.81R
GARRISON         N/A     32  29  88 N12       29.82R WCI  23
WILLISTON      CLOUDY    34  22  61 NE8       29.85S
DICKINSON      CLOUDY    33  19  56 NE9       29.77F
HETTINGER      CLOUDY    25  16  68 W6        29.78F WCI  18
$$

 *****  OTHER OBSERVATIONS NORTHEAST NORTH DAKOTA  *****

CITY           SKY/WX    TMP DP  RH WIND       PRES   REMARKS
WALHALLA       CLOUDY    32  32 100 NW18G26   29.68R WCI  20
LANGDON        CLOUDY    32  27  80 N30G36    29.67R WCI  18
CAVALIER       LGT RAIN  32  28  86 N23G35    29.66R WCI  19
GRAFTON        DRIZZLE   32  32 100 NW22G30   29.65R WCI  19
CANDO          PTSUNNY   32  25  74 N22G29    29.74R WCI  19
FORT TOTTEN      N/A     34  25  68 NW10      29.95S
ROLLA          CLOUDY    32  25  74 N16       29.76R WCI  21
RUGBY          NOT AVBL
 ***** THE ABOVE OBSERVATIONS ARE NON NWS ARE NOT QUALITY
        CONTROLLED AND MAY MIS-REPORT RAIN FOR SNOW...
$$

 *****  OTHER OBSERVATIONS SOUTHEAST NORTH DAKOTA *****

CITY           SKY/WX    TMP DP  RH WIND       PRES   REMARKS
COOPERSTOWN    NOT AVBL
VALLEY CITY    FLURRIES  32  25  74 NW23G30   29.68S WCI  19
OAKES            N/A     28  25  86 NW12      29.71S WCI  18
GWINNER        MOSUNNY   32  27  80 NW16      29.70S WCI  21
BUFFALO        NOT AVBL
WYNDMERE       NOT AVBL
 ***** THE ABOVE OBSERVATIONS ARE NON NWS ARE NOT QUALITY
       CONTROLLED AND MAY MIS-REPORT RAIN FOR SNOW...
$$

  *****  WEATHER ACROSS NORTHERN MINNESOTA  *****

CITY           SKY/WX    TMP DP  RH WIND       PRES   REMARKS
FLAG ISLAND    CLOUDY    30  27  86 N21G26    29.47S WCI  17
WARROAD        LGT SNOW  30  27  86 NW12G18   29.50S WCI  21
ROSEAU         MOCLDY    30  27  86 NW17      29.52S WCI  18
HALLOCK        MIX PCPN  34  30  86 NW22G28   29.60R WCI  22
THF RVR FALLS  MOCLDY    30  27  86 NW21      29.56R WCI  17
HALSTAD          N/A     34  27  75 N25         N/A  WCI  21
FOSSTON        LGT SNOW  28  27  93 NW17      29.54S WCI  16
BAUDETTE       LGT SNOW  30  27  88 NW20G28   29.44R FOG     WCI  17
WASKISH        FLURRIES  30  28  93 W14G20    29.45S WCI  20
CROOKSTON      FLURRIES  32  30  93 N23G29    29.60S WCI  19
$$
  *****  WEATHER ACROSS CENTRAL AND WEST MINNESOTA  *****

CITY           SKY/WX    TMP DP  RH WIND       PRES   REMARKS
BEMIDJI        LGT SNOW  30  26  84 NW20      29.47F WCI  17
PARK RAPIDS    CLOUDY    34  24  67 NW17      29.49F WCI  23
WADENA         MIX PCPN  30  25  80 NW15G26   29.53S WCI  19
DETROIT LAKES  CLOUDY    32  30  93 NW20G26   29.57S WCI  20
MOORHEAD       CLOUDY    34  27  75 NW14      29.63S WCI  24
FERGUS FALLS   CLOUDY    32  23  69 NW17G32   29.63S WCI  21
ELBOW LAKE     CLOUDY    32  28  84 NW20G30   29.61S WCI  20
MORRIS MN      CLOUDY    34  28  80 N17       29.62R WCI  23
STAPLES        CLOUDY    30  23  74 NW15G23   29.52S WCI  19
WHEATON        CLOUDY    34  25  69 NW21      29.67R WCI  22
$$
  *****  WEATHER ELSEWHERE ACROSS MINNESOTA  *****

CITY           SKY/WX    TMP DP  RH WIND       PRES   REMARKS
DULUTH         LGT SNOW  32  27  81 W15G25    29.34S WCI  22
INTRNTL FALLS  LGT SNOW  31  28  89 NW13      29.37S FOG     WCI  21
ELY            LGT SNOW  30  30 100 NW12G17   29.28S WCI  21
CLOQUET        CLOUDY    30  27  86 W15G22    29.37S WCI  19
BRAINERD       CLOUDY    32  24  72 NW14G30   29.49S WCI  22
HIBBING        FLURRIES  31  25  78 NW15G22   29.36S WCI  20
ALEXANDRIA     CLOUDY    32  24  72 NW22G29   29.58R WCI  19
SAINT CLOUD    CLOUDY    35  25  66 W20       29.52S WCI  24
MINNEAPOLIS    CLOUDY    36  25  64 W18G24    29.52F
$$

  *****  WEATHER ACROSS SOUTH DAKOTA  *****

CITY           SKY/WX    TMP DP  RH WIND       PRES   REMARKS
SIOUX FALLS    CLEAR     32  20  61 W8        29.73S WCI  25
BROOKINGS      CLEAR     30  25  80 NW7       29.70S WCI  23
WATERTOWN      CLEAR     33  25  72 W14       29.68S WCI  23
HURON          CLEAR     29  14  53 W12       29.75F WCI  19
SISSETON         N/A     33  26  75 NW20      29.66S WCI  21
ABERDEEN       CLEAR     31  20  63 NW10      29.75R WCI  22
MITCHELL       CLEAR     30  11  45 W12       29.78F WCI  20
PIERRE         CLEAR     33  21  61 W9        29.79F
MOBRIDGE       PTCLDY    29  20  69 N6        29.75F WCI  23
RAPID CITY     CLEAR     32  22  66 W6        29.85F
$$

  *****  SOME WEATHER IN NEARBY STATES *****

CITY           SKY/WX    TMP DP  RH WIND       PRES   REMARKS
GLASGOW MT     CLEAR     40  21  46 SW7       29.75S
GREAT FALLS MT CLEAR     43  27  53 CALM      29.84S
CHEYENNE WY    CLOUDY    35  23  61 W10       29.95F
SCOTTSBLUFF NE CLEAR     31  25  78 N8        29.92S WCI  23
OMAHA NE       MOCLDY    46  20  35 W13       29.80R
DES MOINES IA  CLEAR     38  22  52 NW7       29.74R
DAVENPORT IA   CLEAR     38  30  73 W14       29.66F
CHICAGO IL     CLEAR     40  31  70 W13       29.59F
EAU CLAIRE WI  LGT SNOW  34  30  85 W12       29.46S FOG
LA CROSSE WI   LGT RAIN  38  32  79 W17G24    29.52S
$$

  *****  SOME NATIONAL WEATHER *****

CITY           SKY/WX    TMP DP  RH WIND       PRES   REMARKS
LA GUARDIA NY  CLOUDY    56  53  90 NW6       29.56F
RALEIGH NC     MOCLDY    61  60  97 W5        29.75R
ATLANTA GA     CLEAR     54  44  69 NW8       29.90S
NEW ORLEANS LA MOCLDY    65  48  54 N7        29.97S
OKLAHOMA CITY  LGT RAIN  52  43  71 S10       29.96F
ALBUQUERQUE NM PTCLDY    51  24  34 CALM      29.97S
SALT LAKE CITY CLEAR     49  29  46 SE9       29.89R
LOS ANGELES CA MOCLDY    58  51  78 S3        29.92S
BOISE ID       CLEAR     50  31  48 SE8       29.83R
SEATTLE WA     PTCLDY    58  42  55 NE14      29.87R
$$

*** WEATHER ACROSS MANITOBA...SASKATCHEWAN AND ONTARIO ***
                ***ONTARIO***

CITY           SKY/WX    TMP DP  RH WIND       PRES   REMARKS
GERALDTON      LGT SNOW  30  28  93 NW5       29.11R
THUNDER BAY    LGT SNOW  34  32  93 W8        29.21R
SIOUX LOOKOUT  LGT SNOW  25  23  93 N8        29.33R DRFTSNOWWCI  16
TORONTO        MOCLDY    45  37  76 SW8       29.55S
BIG TROUT LK   LGT SNOW  21  19  93 N17G26    29.49S WCI   7
PICKLE LAKE    NOT AVBL
DRYDEN         LGT SNOW  25  25 100 N8G26     29.36R WCI  16
KENORA         LGT SNOW  27  23  86 N17G26    29.44R FOG     WCI  14
$$
                *** MANITOBA***

CITY           SKY/WX    TMP DP  RH WIND       PRES   REMARKS
BRANDON        CLOUDY    34  25  69 N23       29.80R WCI  22
DAUPHIN        CLOUDY    34  27  75 N22G29    29.87R WCI  22
ISLAND LAKE    LGT SNOW  21  16  79 N13G30    29.80S DRFTSNOWWCI   9
PILOT MOUND      N/A     32  25  74 N23G38      N/A  WCI  19
THE PAS        PTCLDY    28  25  86 N5        29.98R WCI  23
THOMPSON       PTCLDY    21  18  86 NE5       30.01S WCI  15
WINNIPEG       FLURRIES  32  28  86 N24       29.66R WCI  19
LYNN LAKE      MOCLDY    25  21  86 SE3       30.01R
CHURCHILL      FLURRIES  18  14  86 NE17G23   30.15R WCI   2
GILLAM         FLURRIES  18  16  93 N23G30    30.00S WCI   0
$$
                ***SASKATCHEWAN***

CITY           SKY/WX    TMP DP  RH WIND       PRES   REMARKS
ESTEVAN        CLOUDY    32  30  93 CALM      29.86R
KINDERSLEY     CLEAR     34  27  75 E17       29.88R WCI  23
LLOYDMINSTER   CLEAR     32  28  86 SE12      29.90F WCI  23
PRINCE ALBERT  PTCLDY    21  18  86 E2        29.97R
REGINA         PTCLDY    32  27  80 NE7       29.89S
YORKTON        CLEAR     25  23  93 N8        29.90R WCI  16



USA.gov is the U.S. government's official web portal to all federal, state and local government web resources and services.